Location: Crescent
(42.8242°N, 73.7329°W)
Time: 21:13:44
(UTC+00:00)

Vanguard 2 Rocket - Pass Details

Date: 23 February 2026
Orbit: 553 x 3286 km, 32.9° (Epoch: 9 March)

Event Time Altitude Azimuth Distance (km) Brightness Sun altitude
Rises 18:50:21 0° 265° (W) 7,259 11.9 32.6°
Reaches altitude 10° 18:55:31 10° 262° (W) 6,160 11.8 32.1°
Maximum altitude 19:13:34 56° 192° (SSW) 2,895 10.7 30.3°
Drops below altitude 10° 19:25:11 10° 118° (ESE) 4,124 10.2 29.0°
Sets 19:27:55 0° 114° (ESE) 4,808 10.5 28.7°
